Miscellaneous Local Product
Issued by NWS Hastings, NE

Home | Current Version | Previous Version | Graphics & Text | Print | Product List | Glossary On
Versions: 1 2 3 4 5 6 7 8 9 10 11 12 13 14 15 16 17 18 19 20 21 22 23 24 25 26 27 28 29 30 31 32 33 34 35 36 37 38 39 40 41 42 43 44 45 46 47 48 49 50
000
AXUS43 KGID 312002
MISGRI

GID CWA HOURLY WEATHER ROUNDUP
NATIONAL WEATHER SERVICE HASTINGS NE
300 PM CDT SUN AUG 31 2014

NOTE: "FAIR" INDICATES FEW OR NO CLOUDS BELOW 12,000 FEET WITH NO
SIGNIFICANT WEATHER AND/OR OBSTRUCTIONS TO VISIBILITY.

...SOUTH CENTRAL NEBRASKA...

CITY           SKY/WX    TMP DP  RH WIND       PRES   REMARKS
GRAND ISLAND   MOSUNNY   86  65  49 SW10      29.73F
HASTINGS       PTSUNNY   84  62  47 CALM      29.72F
KEARNEY        MOSUNNY   82  63  51 NW8       29.76R
ORD            PTSUNNY   74  59  59 NE15      29.69F
YORK           PTSUNNY   82 N/A N/A S12       29.73F
AURORA         MOSUNNY   84  67  56 SW7       29.72F
LEXINGTON      PTSUNNY   77  63  61 N20G31    29.81R
HOLDREGE       MOSUNNY   81  63  54 NW5       29.77R
HEBRON         MOSUNNY   88  64  43 S10G18    29.71F

...NEBRASKA PANHANDLE...

CITY           SKY/WX    TMP DP  RH WIND       PRES   REMARKS
CHADRON        CLOUDY    75  56  51 SE6       29.75F
ALLIANCE       CLOUDY    73  54  51 W25       29.81F
SCOTTSBLUFF    LGT RAIN  71  51  49 W13       29.84F
SIDNEY         CLOUDY    77  46  33 NW28G38   29.88R

...WESTERN AND NORTH CENTRAL NEBRASKA...

CITY           SKY/WX    TMP DP  RH WIND       PRES   REMARKS
VALENTINE      CLOUDY    65  60  84 SE5       29.76F
AINSWORTH      CLOUDY    63  57  83 CALM      29.80F
ONEILL         CLOUDY    74  62  65 NW8       29.78F
BROKEN BOW     LGT RAIN  71  55  56 N24G36    29.80R
IMPERIAL       PTSUNNY   73  54  51 NE5       29.85R
NORTH PLATTE   CLOUDY    68  56  65 VRB5      29.81F
MCCOOK         MOSUNNY   80  57  45 N16G25    29.80R

...EASTERN NEBRASKA...

CITY           SKY/WX    TMP DP  RH WIND       PRES   REMARKS
NORFOLK        PTSUNNY   82  67  60 S7        29.72F
SO SIOUX CITY  PTSUNNY   79  68  69 S6        29.72S
TEKAMAH        CLOUDY    76  69  79 SE12      29.72F
COLUMBUS       CLOUDY    82  72  69 E8        29.72F
ALBION         CLOUDY    81  66  59 SE5       29.72F
OMAHA EPPLEY   CLOUDY    80  68  66 SE14      29.73F
OFFUTT AFB     CLOUDY    79  75  87 SE12      29.74F
MILLARD        CLOUDY    79  70  74 SE14      29.73F
LINCOLN        MOSUNNY   86  72  62 SE6       29.72F HX  92
NEBRASKA CITY  PTSUNNY   85  72  66 SE10      29.73F HX  90
BEATRICE       MOSUNNY   93  66  40 S21       29.71F HX  96
FALLS CITY     MOSUNNY   93  68  43 S22G29    29.74F HX  97

...NORTHERN KANSAS...

CITY           SKY/WX    TMP DP  RH WIND       PRES   REMARKS
GOODLAND       PTSUNNY   76  54  46 N15G25    29.87R
HILL CITY      SUNNY     90  60  36 SW3       29.72S
NORTON         CLEAR     88  52  29 N14G21    29.75R
PHILLIPSBURG   SUNNY     90  59  35 W7        29.70S
SMITH CENTER   SUNNY     90  63  40 W6        29.69S HX  90
BELOIT         SUNNY     95  63  34 S18G24    29.67S HX  96
HAYS           SUNNY     99  61  28 SW26      29.68S HX  99
RUSSELL        SUNNY     95  64  35 S30G37    29.66F HX  97
CONCORDIA      MOSUNNY   91  69  48 S18G28    29.69F HX  96
SALINA         MOSUNNY   98  62  30 S28G41    29.70F HX  99
TOPEKA         SUNNY     95  66  38 S18G35    29.76F HX  98



USA.gov is the U.S. government's official web portal to all federal, state and local government web resources and services.